When you browse on this site, cookies collect data to enhance your experience and personalize the content and advertising you see.
Visit our Privacy Policy to learn more. By continuing to use the site, you agree to this use of cookies and data.
  • In Austria
  • List of Countries
  • For 7 days
  • Water Temperature
  • Weather Map
  • News
  • Weather Widgets
  • user-avatar
    Login

    Hourly Weather Atitalaquia

    Today, 5 June, Friday

    Time Temperature Precipitation Wind Pressure Humidity
    00:00 +16°C° 0 mm 1 mps 592 mmHg 93%
    01:00 +16°C° 0 mm 1 mps 592 mmHg 94%
    02:00 +15°C° 0 mm 1 mps 591 mmHg 94%
    03:00 +15°C° 0 mm 1 mps 592 mmHg 93%
    04:00 +15°C° 0 mm 1 mps 592 mmHg 92%
    05:00 +15°C° 0 mm 1 mps 592 mmHg 92%
    06:00 +18°C° 0 mm 1 mps 593 mmHg 82%
    07:00 +19°C° 0 mm 1 mps 593 mmHg 72%
    08:00 +21°C° 0 mm 1 mps 594 mmHg 63%
    09:00 +23°C° 0 mm 2 mps 595 mmHg 53%
    10:00 +25°C° 0 mm 3 mps 595 mmHg 42%
    11:00 +27°C° 0 mm 4 mps 596 mmHg 32%
    12:00 +28°C° 0 mm 5 mps 595 mmHg 32%
    13:00 +28°C° 0 mm 5 mps 595 mmHg 31%
    14:00 +29°C° 0 mm 6 mps 595 mmHg 30%
    15:00 +27°C° 0 mm 6 mps 594 mmHg 37%
    16:00 +26°C° 0 mm 7 mps 593 mmHg 44%
    17:00 +23°C° 0 mm 7 mps 593 mmHg 51%
    18:00 +21°C° 0 mm 5 mps 593 mmHg 59%
    19:00 +20°C° 0 mm 4 mps 593 mmHg 67%
    20:00 +18°C° 0 mm 3 mps 593 mmHg 75%
    21:00 +17°C° 0 mm 2 mps 593 mmHg 80%
    22:00 +16°C° 0 mm 1 mps 593 mmHg 84%
    23:00 +16°C° 0 mm 1 mps 592 mmHg 89%

    Tomorrow, 6 June, Saturday

    Time Temperature Precipitation Wind Pressure Humidity
    00:00 +14°C° 0 mm 0 mps 592 mmHg 90%
    01:00 +14°C° 0 mm 0 mps 591 mmHg 91%
    02:00 +13°C° 0 mm 0 mps 591 mmHg 92%
    03:00 +13°C° 0 mm 0 mps 591 mmHg 92%
    04:00 +13°C° 0 mm 0 mps 591 mmHg 91%
    05:00 +13°C° 0 mm 1 mps 591 mmHg 90%
    06:00 +15°C° 0 mm 0 mps 592 mmHg 77%
    07:00 +17°C° 0 mm 0 mps 593 mmHg 64%
    08:00 +20°C° 0 mm 0 mps 594 mmHg 52%
    09:00 +24°C° 0 mm 1 mps 595 mmHg 45%
    10:00 +25°C° 0 mm 2 mps 595 mmHg 38%
    11:00 +27°C° 0 mm 3 mps 596 mmHg 31%
    12:00 +28°C° 0 mm 4 mps 595 mmHg 30%
    13:00 +28°C° 0 mm 5 mps 595 mmHg 29%
    14:00 +29°C° 0 mm 6 mps 595 mmHg 28%
    15:00 +28°C° 0 mm 6 mps 594 mmHg 32%
    16:00 +27°C° 0 mm 6 mps 594 mmHg 36%
    17:00 +26°C° 0 mm 7 mps 593 mmHg 41%
    18:00 +22°C° 0 mm 5 mps 593 mmHg 53%
    19:00 +20°C° 0 mm 3 mps 593 mmHg 65%
    20:00 +18°C° 0 mm 2 mps 592 mmHg 77%
    21:00 +19°C° 0 mm 1 mps 592 mmHg 81%
    22:00 +18°C° 0 mm 1 mps 592 mmHg 85%
    23:00 +16°C° 0 mm 1 mps 592 mmHg 89%

    Day after tomorrow, 7 June, Sunday

    Time Temperature Precipitation Wind Pressure Humidity
    00:00 +15°C° 0 mm 0 mps 592 mmHg 90%
    01:00 +14°C° 0 mm 0 mps 591 mmHg 90%
    02:00 +14°C° 0 mm 0 mps 591 mmHg 91%
    03:00 +14°C° 0 mm 0 mps 591 mmHg 90%
    04:00 +14°C° 0 mm 0 mps 591 mmHg 90%
    05:00 +14°C° 0 mm 1 mps 591 mmHg 89%
    06:00 +18°C° 0 mm 1 mps 592 mmHg 79%
    07:00 +20°C° 0 mm 1 mps 593 mmHg 68%
    08:00 +22°C° 0 mm 1 mps 594 mmHg 57%
    09:00 +24°C° 0 mm 2 mps 594 mmHg 49%
    10:00 +26°C° 0 mm 2 mps 595 mmHg 40%
    11:00 +29°C° 0 mm 3 mps 595 mmHg 32%
    12:00 +29°C° 0 mm 4 mps 595 mmHg 31%
    13:00 +29°C° 0 mm 4 mps 595 mmHg 30%
    14:00 +29°C° 0 mm 4 mps 594 mmHg 30%
    15:00 +28°C° 0 mm 4 mps 594 mmHg 34%
    16:00 +27°C° 0 mm 4 mps 593 mmHg 37%
    17:00 +25°C° 0 mm 4 mps 592 mmHg 41%
    18:00 +24°C° 0.1 mm 3 mps 593 mmHg 48%
    19:00 +23°C° 0.1 mm 2 mps 593 mmHg 54%
    20:00 +20°C° 0.1 mm 0 mps 593 mmHg 61%
    21:00 +21°C° 0 mm 1 mps 593 mmHg 64%
    22:00 +20°C° 0 mm 1 mps 592 mmHg 67%
    23:00 +19°C° 0 mm 1 mps 592 mmHg 71%

    8 June, Monday

    Time Temperature Precipitation Wind Pressure Humidity
    00:00 +19°C° 0 mm 1 mps 592 mmHg 72%
    01:00 +19°C° 0 mm 1 mps 592 mmHg 73%
    02:00 +19°C° 0 mm 1 mps 592 mmHg 74%
    03:00 +18°C° 0 mm 1 mps 592 mmHg 75%
    04:00 +18°C° 0 mm 1 mps 591 mmHg 76%
    05:00 +18°C° 0 mm 1 mps 591 mmHg 77%
    06:00 +20°C° 0 mm 1 mps 593 mmHg 68%
    07:00 +22°C° 0 mm 1 mps 594 mmHg 60%
    08:00 +24°C° 0 mm 1 mps 595 mmHg 51%
    09:00 +26°C° 0 mm 2 mps 595 mmHg 44%
    10:00 +28°C° 0 mm 2 mps 596 mmHg 37%
    11:00 +30°C° 0 mm 3 mps 596 mmHg 31%
    12:00 +30°C° 0 mm 3 mps 596 mmHg 29%
    13:00 +30°C° 0 mm 4 mps 595 mmHg 28%
    14:00 +30°C° 0 mm 4 mps 595 mmHg 27%
    15:00 +29°C° 0 mm 4 mps 594 mmHg 29%
    16:00 +29°C° 0 mm 3 mps 594 mmHg 32%
    17:00 +28°C° 0 mm 3 mps 594 mmHg 34%
    18:00 +26°C° 0.2 mm 2 mps 594 mmHg 44%
    19:00 +24°C° 0.2 mm 2 mps 593 mmHg 54%
    20:00 +22°C° 0.2 mm 1 mps 593 mmHg 64%
    21:00 +21°C° 0.2 mm 1 mps 593 mmHg 66%
    22:00 +21°C° 0.2 mm 1 mps 593 mmHg 69%
    23:00 +20°C° 0.2 mm 1 mps 593 mmHg 71%

    9 June, Tuesday

    Time Temperature Precipitation Wind Pressure Humidity
    00:00 +20°C° 0 mm 1 mps 593 mmHg 72%
    01:00 +17°C° 0 mm 0 mps 593 mmHg 73%
    02:00 +17°C° 0 mm 0 mps 592 mmHg 74%
    03:00 +17°C° 0 mm 0 mps 592 mmHg 75%
    04:00 +16°C° 0 mm 0 mps 592 mmHg 76%
    05:00 +16°C° 0 mm 0 mps 592 mmHg 77%
    06:00 +18°C° 0 mm 0 mps 594 mmHg 67%
    07:00 +21°C° 0 mm 0 mps 595 mmHg 58%
    08:00 +23°C° 0 mm 0 mps 596 mmHg 48%
    09:00 +27°C° 0 mm 2 mps 596 mmHg 40%
    10:00 +29°C° 0 mm 3 mps 597 mmHg 32%
    11:00 +30°C° 0 mm 4 mps 597 mmHg 24%
    12:00 +32°C° 0 mm 5 mps 597 mmHg 22%
    13:00 +33°C° 0 mm 6 mps 597 mmHg 19%
    14:00 +33°C° 0 mm 7 mps 596 mmHg 17%
    15:00 +32°C° 0 mm 7 mps 596 mmHg 19%
    16:00 +31°C° 0 mm 8 mps 595 mmHg 21%
    17:00 +28°C° 0 mm 8 mps 595 mmHg 23%
    18:00 +26°C° 0 mm 6 mps 594 mmHg 33%
    19:00 +22°C° 0 mm 4 mps 594 mmHg 44%
    20:00 +20°C° 0 mm 2 mps 594 mmHg 54%
    21:00 +19°C° 0 mm 2 mps 594 mmHg 62%
    22:00 +19°C° 0 mm 1 mps 594 mmHg 71%
    23:00 +19°C° 0 mm 1 mps 594 mmHg 79%

    10 June, Wednesday

    Time Temperature Precipitation Wind Pressure Humidity
    00:00 +18°C° 0 mm 1 mps 594 mmHg 82%
    01:00 +16°C° 0 mm 0 mps 593 mmHg 85%
    02:00 +15°C° 0 mm 0 mps 593 mmHg 88%
    03:00 +15°C° 0 mm 0 mps 593 mmHg 88%
    04:00 +14°C° 0 mm 0 mps 593 mmHg 88%
    05:00 +14°C° 0 mm 0 mps 593 mmHg 89%
    06:00 +18°C° 0 mm 1 mps 594 mmHg 76%
    07:00 +19°C° 0 mm 2 mps 595 mmHg 63%
    08:00 +21°C° 0 mm 2 mps 596 mmHg 50%
    09:00 +24°C° 0 mm 3 mps 597 mmHg 43%
    10:00 +26°C° 0 mm 4 mps 597 mmHg 36%
    11:00 +28°C° 0 mm 5 mps 598 mmHg 29%
    12:00 +27°C° 0 mm 6 mps 597 mmHg 34%
    13:00 +27°C° 0 mm 7 mps 596 mmHg 38%
    14:00 +27°C° 0 mm 8 mps 596 mmHg 42%
    15:00 +26°C° 0 mm 8 mps 595 mmHg 44%
    16:00 +24°C° 0 mm 8 mps 595 mmHg 47%
    17:00 +23°C° 0 mm 8 mps 595 mmHg 49%
    18:00 +21°C° 0 mm 6 mps 595 mmHg 58%
    19:00 +19°C° 0 mm 4 mps 594 mmHg 68%
    20:00 +17°C° 0 mm 2 mps 594 mmHg 77%
    21:00 +17°C° 0 mm 2 mps 594 mmHg 81%
    22:00 +16°C° 0 mm 2 mps 594 mmHg 85%
    23:00 +16°C° 0 mm 1 mps 594 mmHg 90%
    Show more